| time (UTC) | temp F | wind direction | speed MPH | gust MPH | rain 1hr in | rain 24hr in | rain mn in | humidity % | barometer mb |
| 20260503001823 | 53 | 174 | 0.0 | 2.0 | 0.00 | 0.01 | 0.01 | 52 | 1004.8 |
| 20260503001318 | 54 | 167 | 0.0 | 2.0 | 0.00 | 0.01 | 0.01 | 51 | 1004.6 |
| 20260503000812 | 54 | 139 | 0.0 | 1.0 | 0.00 | 0.01 | 0.01 | 51 | 1004.7 |
| 20260503000306 | 54 | 165 | 0.0 | 2.0 | 0.00 | 0.01 | 0.01 | 49 | 1004.7 |
| 20260502235800 | 54 | 274 | 0.0 | 4.0 | 0.00 | 0.01 | 0.01 | 49 | 1004.6 |
| 20260502235253 | 55 | 262 | 0.0 | 4.0 | 0.00 | 0.01 | 0.01 | 50 | 1004.6 |
| 20260502234748 | 55 | 238 | 0.0 | 1.0 | 0.00 | 0.01 | 0.01 | 48 | 1004.5 |
| 20260502234241 | 55 | 174 | 0.0 | 2.0 | 0.00 | 0.01 | 0.01 | 49 | 1004.5 |
| 20260502233736 | 55 | 162 | 0.0 | 4.0 | 0.00 | 0.01 | 0.01 | 47 | 1004.4 |
| 20260502233229 | 55 | 291 | 0.0 | 4.0 | 0.00 | 0.01 | 0.01 | 47 | 1004.3 |
| 20260502232728 | 56 | 250 | 1.0 | 4.0 | 0.00 | 0.01 | 0.01 | 47 | 1004.3 |
| 20260502232226 | 56 | 219 | 1.0 | 4.0 | 0.00 | 0.01 | 0.01 | 46 | 1004.4 |
| 20260502231725 | 56 | 270 | 0.0 | 4.0 | 0.00 | 0.01 | 0.01 | 46 | 1004.4 |
| 20260502231225 | 56 | 266 | 1.0 | 5.0 | 0.00 | 0.01 | 0.01 | 44 | 1004.3 |
| 20260502230724 | 57 | 207 | 1.0 | 6.0 | 0.00 | 0.01 | 0.01 | 43 | 1004.3 |
| 20260502230443 | 57 | 257 | 1.0 | 6.0 | 0.00 | 0.01 | 0.01 | 46 | 1004.3 |
| 20260502225721 | 58 | 65 | 2.0 | 6.0 | 0.00 | 0.01 | 0.01 | 43 | 1004.2 |
| 20260502225221 | 58 | 100 | 1.0 | 5.0 | 0.00 | 0.01 | 0.01 | 42 | 1004.1 |
| 20260502224721 | 58 | 137 | 1.0 | 5.0 | 0.00 | 0.01 | 0.01 | 43 | 1004.2 |
| 20260502224221 | 58 | 216 | 0.0 | 4.0 | 0.00 | 0.01 | 0.01 | 46 | 1004.2 |
| 20260502223723 | 58 | 54 | 0.0 | 4.0 | 0.00 | 0.01 | 0.01 | 46 | 1004.2 |
| 20260502223221 | 58 | 172 | 1.0 | 4.0 | 0.00 | 0.01 | 0.01 | 46 | 1004.1 |
| 20260502222944 | 58 | 263 | 1.0 | 4.0 | 0.00 | 0.01 | 0.01 | 45 | 1004.2 |
| 20260502222219 | 58 | 108 | 1.0 | 3.0 | 0.00 | 0.01 | 0.01 | 43 | 1004.1 |
| 20260502221944 | 58 | 27 | 0.0 | 3.0 | 0.00 | 0.01 | 0.01 | 44 | 1004.2 |
| 20260502221217 | 59 | 195 | 1.0 | 3.0 | 0.00 | 0.01 | 0.01 | 45 | 1004.1 |
| 20260502220715 | 59 | 241 | 1.0 | 6.0 | 0.00 | 0.01 | 0.01 | 42 | 1004.1 |
| 20260502220213 | 60 | 75 | 1.0 | 6.0 | 0.00 | 0.01 | 0.01 | 42 | 1004.1 |
| 20260502215713 | 60 | 358 | 2.0 | 5.0 | 0.00 | 0.01 | 0.01 | 42 | 1004.2 |
| 20260502215207 | 60 | 301 | 2.0 | 6.0 | 0.00 | 0.01 | 0.01 | 40 | 1004.2 |
| 20260502214701 | 60 | 238 | 2.0 | 7.0 | 0.00 | 0.01 | 0.01 | 40 | 1004.1 |
| 20260502214154 | 60 | 155 | 1.0 | 8.0 | 0.00 | 0.01 | 0.01 | 42 | 1004.1 |
| 20260502213649 | 60 | 141 | 1.0 | 8.0 | 0.00 | 0.01 | 0.01 | 43 | 1004.1 |
| 20260502213144 | 60 | 56 | 1.0 | 4.0 | 0.00 | 0.01 | 0.01 | 43 | 1004.0 |
| 20260502212637 | 60 | 59 | 1.0 | 4.0 | 0.00 | 0.01 | 0.01 | 43 | 1003.9 |
| 20260502212350 | 61 | 86 | 1.0 | 3.0 | 0.00 | 0.01 | 0.01 | 43 | 1003.9 |
| 20260502211624 | 62 | 75 | 1.0 | 3.0 | 0.00 | 0.01 | 0.01 | 40 | 1003.9 |
| 20260502211119 | 63 | 90 | 1.0 | 4.0 | 0.00 | 0.01 | 0.01 | 38 | 1003.9 |
| 20260502210613 | 64 | 184 | 1.0 | 5.0 | 0.00 | 0.01 | 0.01 | 38 | 1003.9 |
| 20260502210107 | 64 | 189 | 2.0 | 5.0 | 0.00 | 0.01 | 0.01 | 37 | 1003.8 |
| 20260502205601 | 63 | 219 | 1.0 | 5.0 | 0.00 | 0.01 | 0.01 | 40 | 1003.7 |
| 20260502205054 | 63 | 269 | 1.0 | 5.0 | 0.00 | 0.01 | 0.01 | 39 | 1003.7 |
| 20260502204549 | 62 | 65 | 1.0 | 4.0 | 0.00 | 0.01 | 0.01 | 40 | 1003.8 |
| 20260502204045 | 61 | 110 | 1.0 | 6.0 | 0.00 | 0.01 | 0.01 | 41 | 1003.7 |
| 20260502203806 | 62 | 338 | 1.0 | 6.0 | 0.00 | 0.01 | 0.01 | 39 | 1003.8 |
| 20260502203031 | 63 | 201 | 1.0 | 6.0 | 0.00 | 0.01 | 0.01 | 38 | 1003.8 |
| 20260502202019 | 62 | 57 | 1.0 | 5.0 | 0.00 | 0.01 | 0.01 | 40 | 1003.8 |
| 20260502201514 | 62 | 266 | 1.0 | 5.0 | 0.00 | 0.01 | 0.01 | 40 | 1003.8 |
| 20260502201006 | 62 | 98 | 1.0 | 5.0 | 0.00 | 0.01 | 0.01 | 42 | 1003.8 |
| 20260502200501 | 62 | 283 | 2.0 | 5.0 | 0.00 | 0.01 | 0.01 | 41 | 1003.8 |
| 20260502195955 | 62 | 49 | 2.0 | 10.0 | 0.00 | 0.01 | 0.01 | 39 | 1003.8 |
| 20260502195719 | 62 | 43 | 2.0 | 10.0 | 0.00 | 0.01 | 0.01 | 45 | 1004.0 |
| 20260502194944 | 62 | 15 | 2.0 | 8.0 | 0.00 | 0.01 | 0.01 | 46 | 1003.9 |
| 20260502194436 | 62 | 89 | 1.0 | 6.0 | 0.00 | 0.01 | 0.01 | 43 | 1003.9 |
| 20260502193930 | 61 | 5 | 1.0 | 4.0 | 0.00 | 0.01 | 0.01 | 47 | 1004.1 |
| 20260502193425 | 60 | 343 | 2.0 | 5.0 | 0.00 | 0.01 | 0.01 | 46 | 1004.2 |
| 20260502192921 | 60 | 269 | 3.0 | 8.0 | 0.00 | 0.01 | 0.01 | 41 | 1004.3 |
| 20260502192421 | 60 | 77 | 2.0 | 8.0 | 0.00 | 0.01 | 0.01 | 44 | 1004.4 |
| 20260502191921 | 60 | 59 | 1.0 | 4.0 | 0.00 | 0.01 | 0.01 | 44 | 1004.6 |
| 20260502191421 | 59 | 91 | 1.0 | 7.0 | 0.00 | 0.01 | 0.01 | 41 | 1004.6 |
| 20260502190921 | 59 | 95 | 2.0 | 7.0 | 0.00 | 0.01 | 0.01 | 41 | 1004.7 |
| 20260502185917 | 61 | 34 | 1.0 | 7.0 | 0.00 | 0.01 | 0.01 | 42 | 1004.9 |
| 20260502185414 | 61 | 354 | 2.0 | 7.0 | 0.00 | 0.01 | 0.01 | 42 | 1005.0 |
| 20260502184914 | 62 | 352 | 2.0 | 6.0 | 0.00 | 0.01 | 0.01 | 41 | 1005.1 |
| 20260502184411 | 62 | 19 | 2.0 | 5.0 | 0.00 | 0.01 | 0.01 | 40 | 1005.1 |
| 20260502184136 | 61 | 284 | 2.0 | 6.0 | 0.00 | 0.01 | 0.01 | 43 | 1005.2 |
| 20260502183406 | 61 | 77 | 2.0 | 7.0 | 0.00 | 0.01 | 0.01 | 45 | 1005.2 |
| 20260502182907 | 61 | 264 | 2.0 | 7.0 | 0.00 | 0.01 | 0.01 | 45 | 1005.4 |
| 20260502182407 | 60 | 60 | 2.0 | 7.0 | 0.00 | 0.01 | 0.01 | 44 | 1005.4 |
| 20260502182126 | 61 | 70 | 2.0 | 7.0 | 0.00 | 0.01 | 0.01 | 41 | 1005.5 |
| 20260502181404 | 60 | 66 | 1.0 | 5.0 | 0.00 | 0.01 | 0.01 | 46 | 1005.6 |
| 20260502180903 | 60 | 251 | 1.0 | 6.0 | 0.00 | 0.01 | 0.01 | 44 | 1005.6 |
| 20260502180359 | 60 | 82 | 2.0 | 6.0 | 0.00 | 0.01 | 0.01 | 46 | 1005.7 |
| 20260502170305 | 59 | 89 | 1.0 | 5.0 | 0.00 | 0.01 | 0.01 | 47 | 1006.1 |
| 20260502164257 | 58 | 143 | 1.0 | 4.0 | 0.00 | 0.01 | 0.01 | 50 | 1006.4 |
| 20260502163757 | 58 | 72 | 1.0 | 4.0 | 0.00 | 0.01 | 0.01 | 50 | 1006.4 |
| 20260502163257 | 58 | 82 | 1.0 | 4.0 | 0.00 | 0.01 | 0.01 | 50 | 1006.4 |
| 20260502162756 | 57 | 65 | 1.0 | 4.0 | 0.00 | 0.01 | 0.01 | 52 | 1006.4 |
| 20260502162514 | 57 | 83 | 1.0 | 4.0 | 0.00 | 0.01 | 0.01 | 51 | 1006.5 |
| 20260502161754 | 57 | 104 | 1.0 | 5.0 | 0.00 | 0.01 | 0.01 | 51 | 1006.5 |
| 20260502161254 | 57 | 347 | 2.0 | 6.0 | 0.00 | 0.01 | 0.01 | 54 | 1006.5 |
| 20260502160755 | 56 | 63 | 2.0 | 6.0 | 0.00 | 0.01 | 0.01 | 52 | 1006.5 |
| 20260502160255 | 57 | 55 | 1.0 | 5.0 | 0.00 | 0.01 | 0.01 | 52 | 1006.6 |
| 20260502151750 | 55 | 131 | 1.0 | 5.0 | 0.00 | 0.01 | 0.01 | 56 | 1007.2 |
| 20260502151246 | 55 | 37 | 1.0 | 5.0 | 0.00 | 0.01 | 0.01 | 55 | 1007.0 |
| 20260502151013 | 55 | 263 | 1.0 | 4.0 | 0.00 | 0.01 | 0.01 | 58 | 1006.8 |
| 20260502150246 | 55 | 262 | 1.0 | 3.0 | 0.00 | 0.01 | 0.01 | 63 | 1006.8 |
| 20260502130738 | 51 | 11 | 1.0 | 6.0 | 0.00 | 0.01 | 0.01 | 69 | 1006.5 |
| 20260502130239 | 51 | 11 | 1.0 | 6.0 | 0.00 | 0.01 | 0.01 | 71 | 1006.5 |
| 20260502123235 | 51 | 34 | 1.0 | 4.0 | 0.00 | 0.01 | 0.01 | 75 | 1006.5 |
| 20260502122732 | 50 | 42 | 1.0 | 2.0 | 0.00 | 0.01 | 0.01 | 73 | 1006.5 |
| 20260502122232 | 50 | 148 | 1.0 | 4.0 | 0.00 | 0.01 | 0.01 | 75 | 1006.5 |
| 20260502121725 | 50 | 65 | 1.0 | 4.0 | 0.00 | 0.01 | 0.01 | 72 | 1006.5 |
| 20260502121219 | 50 | 147 | 1.0 | 5.0 | 0.00 | 0.01 | 0.01 | 72 | 1006.5 |
| 20260502120714 | 50 | 111 | 1.0 | 5.0 | 0.00 | 0.01 | 0.01 | 72 | 1006.6 |
| 20260502120209 | 50 | 124 | 1.0 | 5.0 | 0.00 | 0.01 | 0.01 | 73 | 1006.6 |
| 20260502115702 | 50 | 342 | 1.0 | 5.0 | 0.00 | 0.01 | 0.01 | 74 | 1006.6 |
| 20260502115156 | 50 | 3 | 0.0 | 3.0 | 0.00 | 0.01 | 0.01 | 75 | 1006.6 |
| 20260502114650 | 50 | 178 | 1.0 | 4.0 | 0.00 | 0.01 | 0.01 | 74 | 1006.6 |
| 20260502114145 | 49 | 112 | 1.0 | 4.0 | 0.00 | 0.01 | 0.01 | 74 | 1006.7 |
| 20260502113638 | 49 | 206 | 1.0 | 7.0 | 0.00 | 0.01 | 0.01 | 74 | 1006.7 |
| 20260502113137 | 49 | 115 | 1.0 | 7.0 | 0.00 | 0.01 | 0.01 | 73 | 1006.7 |
| 20260502112637 | 49 | 233 | 0.0 | 5.0 | 0.00 | 0.01 | 0.01 | 74 | 1006.7 |
| 20260502112356 | 49 | 263 | 1.0 | 5.0 | 0.00 | 0.01 | 0.01 | 73 | 1006.7 |
| 20260502111637 | 49 | 117 | 1.0 | 5.0 | 0.00 | 0.01 | 0.01 | 73 | 1006.6 |
| 20260502111134 | 49 | 136 | 1.0 | 5.0 | 0.00 | 0.01 | 0.01 | 74 | 1006.5 |
| 20260502110854 | 49 | 309 | 1.0 | 8.0 | 0.00 | 0.01 | 0.01 | 73 | 1006.3 |
| 20260502110404 | 49 | 167 | 1.0 | 8.0 | 0.00 | 0.01 | 0.01 | 74 | 1006.3 |
| 20260502105633 | 49 | 266 | 1.0 | 5.0 | 0.00 | 0.01 | 0.01 | 74 | 1006.4 |
| 20260502105132 | 49 | 288 | 1.0 | 3.0 | 0.00 | 0.01 | 0.01 | 74 | 1006.2 |
| 20260502104632 | 49 | 273 | 1.0 | 4.0 | 0.00 | 0.01 | 0.01 | 74 | 1006.2 |
| 20260502104132 | 49 | 119 | 1.0 | 4.0 | 0.00 | 0.01 | 0.01 | 74 | 1006.1 |
| 20260502103632 | 49 | 218 | 1.0 | 4.0 | 0.00 | 0.01 | 0.01 | 74 | 1006.1 |
| 20260502103130 | 49 | 216 | 1.0 | 6.0 | 0.00 | 0.01 | 0.01 | 74 | 1006.1 |
| 20260502102849 | 49 | 283 | 1.0 | 6.0 | 0.00 | 0.01 | 0.01 | 75 | 1006.0 |
| 20260502102128 | 49 | 229 | 0.0 | 3.0 | 0.00 | 0.01 | 0.01 | 76 | 1006.0 |
| 20260502101628 | 49 | 157 | 0.0 | 3.0 | 0.00 | 0.01 | 0.01 | 76 | 1005.8 |
| 20260502101126 | 49 | 253 | 1.0 | 5.0 | 0.00 | 0.01 | 0.01 | 76 | 1005.9 |
| 20260502100625 | 49 | 113 | 1.0 | 6.0 | 0.00 | 0.01 | 0.01 | 77 | 1005.9 |
| 20260502100126 | 49 | 337 | 1.0 | 6.0 | 0.00 | 0.01 | 0.01 | 77 | 1005.9 |
| 20260502091531 | 48 | 77 | 0.0 | 4.0 | 0.00 | 0.01 | 0.01 | 89 | 1005.2 |
| 20260502091026 | 47 | 82 | 0.0 | 3.0 | 0.01 | 0.01 | 0.01 | 89 | 1005.2 |
| 20260502090520 | 47 | 255 | 1.0 | 5.0 | 0.01 | 0.01 | 0.01 | 89 | 1005.2 |
| 20260502071526 | 47 | 229 | 0.0 | 0.0 | 0.00 | 0.00 | 0.00 | 89 | 1004.9 |
| 20260502070802 | 48 | 229 | 0.0 | 0.0 | 0.00 | 0.00 | 0.00 | 89 | 1005.0 |
| 20260502070257 | 48 | 229 | 0.0 | 0.0 | 0.00 | 0.00 | 0.00 | 89 | 1005.0 |
| 20260502065750 | 48 | 229 | 0.0 | 0.0 | 0.00 | 0.00 | 0.00 | 89 | 1004.7 |
| 20260502065244 | 48 | 229 | 0.0 | 0.0 | 0.00 | 0.00 | 0.00 | 89 | 1004.8 |
| 20260502064738 | 48 | 229 | 0.0 | 0.0 | 0.00 | 0.00 | 0.00 | 88 | 1004.7 |
| 20260502064232 | 49 | 229 | 0.0 | 0.0 | 0.00 | 0.00 | 0.00 | 88 | 1004.7 |
| 20260502063727 | 49 | 229 | 0.0 | 0.0 | 0.00 | 0.00 | 0.00 | 88 | 1004.8 |
| 20260502063221 | 49 | 229 | 0.0 | 0.0 | 0.00 | 0.00 | 0.00 | 88 | 1004.9 |
| 20260502062715 | 49 | 229 | 0.0 | 0.0 | 0.00 | 0.00 | 0.00 | 88 | 1004.9 |
| 20260502062207 | 50 | 229 | 0.0 | 0.0 | 0.00 | 0.00 | 0.00 | 88 | 1005.1 |
| 20260502061702 | 50 | 229 | 0.0 | 1.0 | 0.00 | 0.00 | 0.00 | 88 | 1005.0 |
| 20260502061156 | 51 | 229 | 0.0 | 1.0 | 0.00 | 0.00 | 0.00 | 88 | 1004.9 |
| 20260502060649 | 51 | 229 | 0.0 | 0.0 | 0.00 | 0.00 | 0.00 | 88 | 1004.8 |
| 20260502060407 | 51 | 229 | 0.0 | 0.0 | 0.00 | 0.00 | 0.00 | 87 | 1004.7 |
| 20260502055639 | 51 | 229 | 0.0 | 0.0 | 0.00 | 0.00 | 0.00 | 87 | 1004.8 |
| 20260502055132 | 51 | 229 | 0.0 | 0.0 | 0.00 | 0.00 | 0.00 | 87 | 1004.8 |
| 20260502054627 | 51 | 229 | 0.0 | 0.0 | 0.00 | 0.00 | 0.00 | 87 | 1005.0 |
| 20260502054340 | 52 | 229 | 0.0 | 1.0 | 0.00 | 0.00 | 0.00 | 87 | 1005.1 |
| 20260502053614 | 52 | 229 | 0.0 | 1.0 | 0.00 | 0.00 | 0.00 | 87 | 1005.1 |
| 20260502053108 | 52 | 229 | 0.0 | 0.0 | 0.00 | 0.00 | 0.00 | 86 | 1005.2 |
| 20260502052601 | 52 | 229 | 0.0 | 0.0 | 0.00 | 0.00 | 0.00 | 85 | 1005.2 |
| 20260502052057 | 52 | 229 | 0.0 | 0.0 | 0.00 | 0.00 | 0.00 | 85 | 1005.3 |
| 20260502051550 | 52 | 229 | 0.0 | 0.0 | 0.00 | 0.00 | 0.00 | 85 | 1005.2 |
| 20260502051044 | 52 | 229 | 0.0 | 0.0 | 0.00 | 0.00 | 0.00 | 84 | 1005.3 |
| 20260502050538 | 52 | 229 | 0.0 | 1.0 | 0.00 | 0.00 | 0.00 | 84 | 1005.4 |
| 20260502050031 | 53 | 229 | 0.0 | 1.0 | 0.00 | 0.00 | 0.00 | 83 | 1005.5 |
| 20260502045526 | 53 | 229 | 0.0 | 1.0 | 0.00 | 0.00 | 0.00 | 83 | 1005.5 |
| 20260502045020 | 53 | 229 | 0.0 | 0.0 | 0.00 | 0.00 | 0.00 | 82 | 1005.5 |
| 20260502044514 | 53 | 229 | 0.0 | 1.0 | 0.00 | 0.00 | 0.00 | 82 | 1005.5 |
| 20260502044008 | 54 | 229 | 0.0 | 2.0 | 0.00 | 0.00 | 0.00 | 81 | 1005.5 |
| 20260502043726 | 54 | 229 | 0.0 | 2.0 | 0.00 | 0.00 | 0.00 | 81 | 1005.4 |
| 20260502042957 | 54 | 188 | 0.0 | 2.0 | 0.00 | 0.00 | 0.00 | 80 | 1005.3 |
| 20260502042450 | 54 | 246 | 0.0 | 2.0 | 0.00 | 0.00 | 0.00 | 79 | 1005.4 |
| 20260502041944 | 54 | 278 | 0.0 | 2.0 | 0.00 | 0.00 | 0.00 | 79 | 1005.3 |
| 20260502041438 | 54 | 240 | 0.0 | 2.0 | 0.00 | 0.00 | 0.00 | 79 | 1005.1 |
| 20260502040933 | 54 | 259 | 0.0 | 2.0 | 0.00 | 0.00 | 0.00 | 79 | 1004.9 |
| 20260502040427 | 54 | 259 | 0.0 | 3.0 | 0.00 | 0.00 | 0.00 | 79 | 1004.8 |
| 20260502035919 | 54 | 227 | 0.0 | 3.0 | 0.00 | 0.00 | 0.00 | 79 | 1004.7 |
| 20260502035637 | 54 | 247 | 0.0 | 1.0 | 0.00 | 0.00 | 0.00 | 79 | 1004.6 |
| 20260502034907 | 54 | 255 | 0.0 | 2.0 | 0.00 | 0.00 | 0.00 | 78 | 1004.4 |
| 20260502034402 | 54 | 250 | 0.0 | 2.0 | 0.00 | 0.00 | 0.00 | 78 | 1004.5 |
| 20260502033856 | 54 | 286 | 0.0 | 2.0 | 0.00 | 0.00 | 0.00 | 78 | 1004.6 |
| 20260502033609 | 54 | 240 | 0.0 | 1.0 | 0.00 | 0.00 | 0.00 | 78 | 1004.4 |
| 20260502032843 | 54 | 240 | 0.0 | 1.0 | 0.00 | 0.00 | 0.00 | 78 | 1004.5 |
| 20260502032338 | 54 | 240 | 0.0 | 1.0 | 0.00 | 0.00 | 0.00 | 77 | 1004.6 |
| 20260502031831 | 54 | 198 | 0.0 | 4.0 | 0.00 | 0.00 | 0.00 | 77 | 1004.5 |
| 20260502031326 | 54 | 198 | 0.0 | 4.0 | 0.00 | 0.00 | 0.00 | 77 | 1004.4 |
| 20260502030819 | 54 | 236 | 0.0 | 0.0 | 0.00 | 0.00 | 0.00 | 78 | 1004.3 |
| 20260502030313 | 54 | 176 | 0.0 | 0.0 | 0.00 | 0.00 | 0.00 | 77 | 1004.3 |
| 20260502025807 | 54 | 252 | 0.0 | 0.0 | 0.00 | 0.00 | 0.00 | 77 | 1004.3 |
| 20260502025301 | 54 | 252 | 0.0 | 1.0 | 0.00 | 0.00 | 0.00 | 77 | 1004.3 |
| 20260502024756 | 54 | 251 | 0.0 | 1.0 | 0.00 | 0.00 | 0.00 | 77 | 1004.3 |
| 20260502023743 | 54 | 4 | 0.0 | 1.0 | 0.00 | 0.00 | 0.00 | 77 | 1004.4 |
| 20260502023457 | 54 | 4 | 0.0 | 1.0 | 0.00 | 0.00 | 0.00 | 77 | 1004.3 |
| 20260502022731 | 54 | 76 | 0.0 | 1.0 | 0.00 | 0.00 | 0.00 | 78 | 1004.3 |
| 20260502022227 | 54 | 221 | 0.0 | 1.0 | 0.00 | 0.00 | 0.00 | 79 | 1004.3 |
| 20260502021937 | 54 | 243 | 0.0 | 1.0 | 0.00 | 0.00 | 0.00 | 79 | 1004.6 |
| 20260502021213 | 54 | 261 | 0.0 | 1.0 | 0.00 | 0.00 | 0.00 | 79 | 1004.6 |
| 20260502020932 | 54 | 261 | 0.0 | 1.0 | 0.00 | 0.00 | 0.00 | 79 | 1004.6 |
| 20260502020201 | 54 | 260 | 0.0 | 1.0 | 0.00 | 0.00 | 0.00 | 79 | 1004.5 |
| 20260502015656 | 54 | 260 | 0.0 | 1.0 | 0.00 | 0.00 | 0.00 | 78 | 1004.5 |
| 20260502015150 | 54 | 260 | 0.0 | 0.0 | 0.00 | 0.00 | 0.00 | 78 | 1004.4 |
| 20260502014643 | 55 | 260 | 0.0 | 0.0 | 0.00 | 0.00 | 0.00 | 78 | 1004.3 |
| 20260502014137 | 55 | 260 | 0.0 | 1.0 | 0.00 | 0.00 | 0.00 | 78 | 1004.2 |
| 20260502013630 | 55 | 260 | 0.0 | 1.0 | 0.00 | 0.00 | 0.00 | 78 | 1004.3 |
| 20260502013127 | 55 | 260 | 0.0 | 0.0 | 0.00 | 0.00 | 0.00 | 77 | 1004.2 |
| 20260502012619 | 54 | 260 | 0.0 | 1.0 | 0.00 | 0.00 | 0.00 | 77 | 1004.0 |
| 20260502012112 | 54 | 261 | 0.0 | 1.0 | 0.00 | 0.00 | 0.00 | 77 | 1004.0 |
| 20260502011831 | 54 | 29 | 0.0 | 1.0 | 0.00 | 0.00 | 0.00 | 76 | 1003.9 |
| 20260502011102 | 54 | 256 | 0.0 | 2.0 | 0.00 | 0.00 | 0.00 | 76 | 1003.9 |
| 20260502010556 | 54 | 89 | 0.0 | 2.0 | 0.00 | 0.00 | 0.00 | 76 | 1003.8 |
| 20260502010312 | 54 | 109 | 0.0 | 2.0 | 0.00 | 0.00 | 0.00 | 76 | 1003.7 |
| 20260502005543 | 54 | 276 | 0.0 | 2.0 | 0.00 | 0.00 | 0.00 | 76 | 1003.6 |
| 20260502005038 | 54 | 349 | 0.0 | 2.0 | 0.00 | 0.00 | 0.00 | 76 | 1003.5 |
| 20260502004531 | 54 | 86 | 0.0 | 1.0 | 0.00 | 0.00 | 0.00 | 76 | 1003.4 |
| 20260502004027 | 54 | 86 | 0.0 | 1.0 | 0.00 | 0.00 | 0.00 | 76 | 1003.5 |
| 20260502003519 | 53 | 86 | 0.0 | 1.0 | 0.00 | 0.00 | 0.00 | 76 | 1003.6 |
| 20260502003013 | 53 | 86 | 0.0 | 1.0 | 0.00 | 0.00 | 0.00 | 76 | 1003.7 |
| 20260502002507 | 53 | 259 | 0.0 | 1.0 | 0.00 | 0.00 | 0.00 | 75 | 1003.8 |